Time,TemperatureF,DewpointF,PressureIn,WindDirection,WindDirectionDegrees,WindSpeedMPH,WindSpeedGustMPH,Humidity,HourlyPrecipIn,Conditions,Clouds,dailyrainin,SoftwareType,DateUTC
2015-05-29 00:02:00,52.5,51.4,30.06,West,271,1.0,3.0,96,0.00,,,0.00,meteohub,2015-05-29 07:02:00,
2015-05-29 00:07:00,52.5,51.4,30.06,WNW,297,1.0,3.0,96,0.00,,,0.00,meteohub,2015-05-29 07:07:00,
2015-05-29 00:12:00,52.5,51.1,30.06,NW,321,2.0,3.0,95,0.00,,,0.00,meteohub,2015-05-29 07:12:00,
2015-05-29 00:17:00,52.5,51.4,30.06,West,274,0.0,3.0,96,0.00,,,0.00,meteohub,2015-05-29 07:17:00,
2015-05-29 00:22:00,52.5,51.1,30.06,West,259,1.0,3.0,95,0.00,,,0.00,meteohub,2015-05-29 07:22:00,
2015-05-29 00:27:00,52.3,50.9,30.06,West,259,3.0,3.0,95,0.00,,,0.00,meteohub,2015-05-29 07:27:00,
2015-05-29 00:32:00,52.3,51.3,30.06,West,269,2.0,5.0,96,0.00,,,0.00,meteohub,2015-05-29 07:32:00,
2015-05-29 00:37:00,52.3,51.3,30.06,West,277,3.0,5.0,96,0.00,,,0.00,meteohub,2015-05-29 07:37:00,
2015-05-29 00:42:00,52.3,51.3,30.06,WSW,254,2.0,5.0,96,0.00,,,0.00,meteohub,2015-05-29 07:42:00,
2015-05-29 00:47:00,52.3,51.3,30.06,WSW,255,0.0,4.0,96,0.00,,,0.00,meteohub,2015-05-29 07:47:00,
2015-05-29 00:52:00,52.3,51.3,30.06,West,269,2.0,4.0,96,0.00,,,0.00,meteohub,2015-05-29 07:52:00,
2015-05-29 00:57:00,52.3,51.3,30.06,WSW,243,4.0,6.0,96,0.00,,,0.00,meteohub,2015-05-29 07:57:00,
2015-05-29 01:02:00,52.3,51.3,30.06,WSW,254,3.0,6.0,96,0.00,,,0.00,meteohub,2015-05-29 08:02:00,
2015-05-29 01:07:00,52.3,51.3,30.06,WSW,248,1.0,6.0,96,0.00,,,0.00,meteohub,2015-05-29 08:07:00,
2015-05-29 01:12:00,52.3,51.3,30.06,WSW,248,1.0,6.0,96,0.00,,,0.00,meteohub,2015-05-29 08:12:00,
2015-05-29 01:17:00,52.3,51.3,30.06,West,269,2.0,8.0,96,0.00,,,0.00,meteohub,2015-05-29 08:17:00,
2015-05-29 01:22:00,52.3,51.3,30.06,WSW,249,5.0,8.0,96,0.00,,,0.00,meteohub,2015-05-29 08:22:00,
2015-05-29 01:27:00,52.2,51.1,30.06,WSW,252,5.0,8.0,96,0.00,,,0.00,meteohub,2015-05-29 08:27:00,
2015-05-29 01:32:00,52.2,51.1,30.06,West,265,1.0,7.0,96,0.00,,,0.00,meteohub,2015-05-29 08:32:00,
2015-05-29 01:37:00,52.2,51.3,30.06,West,261,0.0,7.0,97,0.00,,,0.00,meteohub,2015-05-29 08:37:00,
2015-05-29 01:42:00,52.2,51.3,30.05,SW,236,2.0,7.0,97,0.00,,,0.00,meteohub,2015-05-29 08:42:00,
2015-05-29 01:47:00,52.2,51.3,30.05,WSW,250,3.0,4.0,97,0.00,,,0.00,meteohub,2015-05-29 08:47:00,
2015-05-29 01:52:00,52.0,50.9,30.05,WSW,238,2.0,4.0,96,0.00,,,0.00,meteohub,2015-05-29 08:52:00,
2015-05-29 01:57:00,52.0,50.9,30.05,West,273,2.0,4.0,96,0.00,,,0.00,meteohub,2015-05-29 08:57:00,
2015-05-29 02:02:00,51.8,50.9,30.05,West,273,3.0,4.0,97,0.00,,,0.00,meteohub,2015-05-29 09:02:00,
2015-05-29 02:07:00,51.8,50.9,30.05,West,273,1.0,4.0,97,0.00,,,0.00,meteohub,2015-05-29 09:07:00,
2015-05-29 02:12:00,52.0,51.1,30.05,West,273,1.0,4.0,97,0.00,,,0.00,meteohub,2015-05-29 09:12:00,
2015-05-29 02:17:00,51.8,50.9,30.05,West,270,1.0,4.0,97,0.00,,,0.00,meteohub,2015-05-29 09:17:00,
2015-05-29 02:22:00,52.0,51.1,30.05,West,270,1.0,3.0,97,0.00,,,0.00,meteohub,2015-05-29 09:22:00,
2015-05-29 02:27:00,52.0,51.1,30.05,West,271,3.0,3.0,97,0.00,,,0.00,meteohub,2015-05-29 09:27:00,
2015-05-29 02:32:00,52.0,51.1,30.05,West,276,0.0,4.0,97,0.00,,,0.00,meteohub,2015-05-29 09:32:00,
2015-05-29 02:37:00,52.0,51.1,30.04,West,261,3.0,4.0,97,0.00,,,0.00,meteohub,2015-05-29 09:37:00,
2015-05-29 02:42:00,52.0,51.1,30.04,West,261,0.0,4.0,97,0.00,,,0.00,meteohub,2015-05-29 09:42:00,
2015-05-29 02:47:00,52.2,51.3,30.04,West,261,0.0,4.0,97,0.00,,,0.00,meteohub,2015-05-29 09:47:00,
2015-05-29 02:52:00,52.2,51.3,30.04,West,260,1.0,4.0,97,0.00,,,0.00,meteohub,2015-05-29 09:52:00,
2015-05-29 02:57:00,52.0,51.1,30.04,WSW,257,3.0,4.0,97,0.00,,,0.00,meteohub,2015-05-29 09:57:00,
2015-05-29 03:02:00,52.0,51.1,30.04,WSW,257,0.0,4.0,97,0.00,,,0.00,meteohub,2015-05-29 10:02:00,
2015-05-29 03:07:00,52.0,51.1,30.04,WSW,257,2.0,4.0,97,0.00,,,0.00,meteohub,2015-05-29 10:07:00,
2015-05-29 03:12:00,52.0,51.1,30.04,West,268,1.0,5.0,97,0.00,,,0.00,meteohub,2015-05-29 10:12:00,
2015-05-29 03:17:00,52.0,51.1,30.04,West,261,0.0,5.0,97,0.00,,,0.00,meteohub,2015-05-29 10:17:00,
2015-05-29 03:22:00,52.0,51.1,30.04,West,271,2.0,5.0,97,0.00,,,0.00,meteohub,2015-05-29 10:22:00,
2015-05-29 03:27:00,51.8,50.9,30.04,WSW,249,2.0,5.0,97,0.00,,,0.00,meteohub,2015-05-29 10:27:00,
2015-05-29 03:32:00,51.8,50.9,30.04,NW,304,1.0,5.0,97,0.00,,,0.00,meteohub,2015-05-29 10:32:00,
2015-05-29 03:37:00,51.6,50.7,30.04,WSW,254,1.0,5.0,97,0.00,,,0.00,meteohub,2015-05-29 10:37:00,
2015-05-29 03:42:00,51.6,50.7,30.04,WSW,257,1.0,5.0,97,0.00,,,0.00,meteohub,2015-05-29 10:42:00,
2015-05-29 03:47:00,51.6,50.7,30.04,WSW,243,4.0,5.0,97,0.00,,,0.00,meteohub,2015-05-29 10:47:00,
2015-05-29 03:52:00,51.6,50.7,30.04,WSW,256,2.0,7.0,97,0.00,,,0.00,meteohub,2015-05-29 10:52:00,
2015-05-29 03:57:00,51.6,50.7,30.04,WSW,249,3.0,7.0,97,0.00,,,0.00,meteohub,2015-05-29 10:57:00,
2015-05-29 04:02:00,51.6,50.7,30.04,WSW,250,2.0,7.0,97,0.00,,,0.00,meteohub,2015-05-29 11:02:00,
2015-05-29 04:07:00,51.6,50.7,30.04,WNW,282,1.0,7.0,97,0.00,,,0.00,meteohub,2015-05-29 11:07:00,
2015-05-29 04:12:00,51.4,50.5,30.04,WNW,294,0.0,3.0,97,0.00,,,0.00,meteohub,2015-05-29 11:12:00,
2015-05-29 04:17:00,51.4,50.5,30.04,WNW,294,1.0,3.0,97,0.00,,,0.00,meteohub,2015-05-29 11:17:00,
2015-05-29 04:22:00,51.4,50.5,30.04,WNW,294,0.0,3.0,97,0.00,,,0.00,meteohub,2015-05-29 11:22:00,
2015-05-29 04:27:00,51.4,50.5,30.04,WNW,295,1.0,2.0,97,0.00,,,0.00,meteohub,2015-05-29 11:27:00,
2015-05-29 04:32:00,51.4,50.5,30.04,WNW,296,0.0,3.0,97,0.00,,,0.00,meteohub,2015-05-29 11:32:00,
2015-05-29 04:37:00,51.4,50.5,30.04,WSW,245,2.0,3.0,97,0.00,,,0.00,meteohub,2015-05-29 11:37:00,
2015-05-29 04:42:00,51.4,50.5,30.04,WNW,288,0.0,3.0,97,0.00,,,0.00,meteohub,2015-05-29 11:42:00,
2015-05-29 04:47:00,51.3,50.4,30.04,West,267,1.0,3.0,97,0.00,,,0.00,meteohub,2015-05-29 11:47:00,
2015-05-29 04:52:00,51.3,50.4,30.04,West,267,0.0,3.0,97,0.00,,,0.00,meteohub,2015-05-29 11:52:00,
2015-05-29 04:57:00,51.3,50.4,30.04,West,267,0.0,3.0,97,0.00,,,0.00,meteohub,2015-05-29 11:57:00,
2015-05-29 05:02:00,51.3,50.4,30.04,West,267,0.0,3.0,97,0.00,,,0.00,meteohub,2015-05-29 12:02:00,
2015-05-29 05:07:00,51.3,50.4,30.04,West,267,0.0,1.0,97,0.00,,,0.00,meteohub,2015-05-29 12:07:00,
2015-05-29 05:12:00,51.3,50.4,30.04,West,267,0.0,1.0,97,0.00,,,0.00,meteohub,2015-05-29 12:12:00,
2015-05-29 05:17:00,51.3,50.4,30.04,West,267,0.0,0.0,97,0.00,,,0.00,meteohub,2015-05-29 12:17:00,
2015-05-29 05:22:00,51.3,50.4,30.04,West,267,1.0,0.0,97,0.00,,,0.00,meteohub,2015-05-29 12:22:00,
2015-05-29 05:27:00,51.3,50.4,30.04,West,267,2.0,2.0,97,0.00,,,0.00,meteohub,2015-05-29 12:27:00,
2015-05-29 05:32:00,51.3,50.4,30.04,West,267,0.0,2.0,97,0.00,,,0.00,meteohub,2015-05-29 12:32:00,
2015-05-29 05:37:00,51.3,50.4,30.04,WNW,290,0.0,4.0,97,0.00,,,0.00,meteohub,2015-05-29 12:37:00,
2015-05-29 05:42:00,51.3,50.4,30.04,WNW,290,1.0,4.0,97,0.00,,,0.00,meteohub,2015-05-29 12:42:00,
2015-05-29 05:47:00,51.3,50.4,30.04,WSW,246,2.0,4.0,97,0.00,,,0.00,meteohub,2015-05-29 12:47:00,
2015-05-29 05:52:00,51.3,50.4,30.04,WSW,246,1.0,4.0,97,0.00,,,0.00,meteohub,2015-05-29 12:52:00,
2015-05-29 05:57:00,51.3,50.4,30.04,WSW,246,0.0,4.0,97,0.00,,,0.00,meteohub,2015-05-29 12:57:00,
2015-05-29 06:02:00,51.3,50.4,30.04,WSW,257,2.0,4.0,97,0.00,,,0.00,meteohub,2015-05-29 13:02:00,
2015-05-29 06:07:00,51.1,50.2,30.04,NW,313,2.0,3.0,97,0.00,,,0.00,meteohub,2015-05-29 13:07:00,
2015-05-29 06:12:00,51.1,50.2,30.04,NW,313,1.0,4.0,97,0.00,,,0.00,meteohub,2015-05-29 13:12:00,
2015-05-29 06:17:00,51.1,50.2,30.04,NW,312,0.0,4.0,97,0.00,,,0.00,meteohub,2015-05-29 13:17:00,
2015-05-29 06:22:00,50.9,50.0,30.05,NW,312,0.0,2.0,97,0.00,,,0.00,meteohub,2015-05-29 13:22:00,
2015-05-29 06:27:00,51.1,50.2,30.05,NW,312,1.0,2.0,97,0.00,,,0.00,meteohub,2015-05-29 13:27:00,
2015-05-29 06:32:00,50.9,50.0,30.05,WSW,257,1.0,5.0,97,0.00,,,0.00,meteohub,2015-05-29 13:32:00,
2015-05-29 06:37:00,51.1,50.2,30.05,NNW,348,0.0,5.0,97,0.00,,,0.00,meteohub,2015-05-29 13:37:00,
2015-05-29 06:42:00,51.1,50.2,30.05,WSW,242,4.0,5.0,97,0.00,,,0.00,meteohub,2015-05-29 13:42:00,
2015-05-29 06:47:00,51.1,50.2,30.04,West,279,3.0,5.0,97,0.00,,,0.00,meteohub,2015-05-29 13:47:00,
2015-05-29 06:52:00,51.1,50.2,30.04,WSW,257,2.0,6.0,97,0.00,,,0.00,meteohub,2015-05-29 13:52:00,
2015-05-29 06:57:00,51.3,50.4,30.04,West,260,2.0,6.0,97,0.00,,,0.00,meteohub,2015-05-29 13:57:00,
2015-05-29 07:02:00,51.3,50.4,30.04,WSW,252,2.0,4.0,97,0.00,,,0.00,meteohub,2015-05-29 14:02:00,
2015-05-29 07:07:00,51.3,50.4,30.04,WSW,246,1.0,5.0,97,0.00,,,0.00,meteohub,2015-05-29 14:07:00,
2015-05-29 07:12:00,51.3,50.4,30.04,WSW,246,0.0,5.0,97,0.00,,,0.00,meteohub,2015-05-29 14:12:00,
2015-05-29 07:17:00,51.3,50.4,30.04,WSW,246,0.0,4.0,97,0.00,,,0.00,meteohub,2015-05-29 14:17:00,
2015-05-29 07:22:00,51.4,50.5,30.04,WSW,246,1.0,3.0,97,0.00,,,0.00,meteohub,2015-05-29 14:22:00,
2015-05-29 07:27:00,51.4,50.5,30.04,WSW,246,0.0,2.0,97,0.00,,,0.00,meteohub,2015-05-29 14:27:00,
2015-05-29 07:32:00,51.6,50.7,30.04,WSW,246,0.0,2.0,97,0.00,,,0.00,meteohub,2015-05-29 14:32:00,
2015-05-29 07:37:00,51.6,50.7,30.04,WSW,246,0.0,2.0,97,0.00,,,0.00,meteohub,2015-05-29 14:37:00,
2015-05-29 07:42:00,51.6,50.7,30.04,WSW,246,0.0,0.0,97,0.00,,,0.00,meteohub,2015-05-29 14:42:00,
2015-05-29 07:47:00,51.6,50.7,30.04,WSW,246,2.0,0.0,97,0.00,,,0.00,meteohub,2015-05-29 14:47:00,
2015-05-29 07:52:00,51.8,50.9,30.04,WSW,246,0.0,3.0,97,0.00,,,0.00,meteohub,2015-05-29 14:52:00,
2015-05-29 07:57:00,52.0,51.1,30.04,WSW,247,0.0,3.0,97,0.00,,,0.00,meteohub,2015-05-29 14:57:00,
2015-05-29 08:02:00,52.0,51.1,30.04,West,281,0.0,3.0,97,0.00,,,0.00,meteohub,2015-05-29 15:02:00,
2015-05-29 08:07:00,52.0,51.1,30.04,West,281,0.0,2.0,97,0.00,,,0.00,meteohub,2015-05-29 15:07:00,
2015-05-29 08:12:00,52.2,51.3,30.04,West,281,1.0,3.0,97,0.00,,,0.00,meteohub,2015-05-29 15:12:00,
2015-05-29 08:17:00,52.2,51.3,30.04,North,5,2.0,3.0,97,0.00,,,0.00,meteohub,2015-05-29 15:17:00,
2015-05-29 08:22:00,52.2,51.3,30.04,North,5,1.0,3.0,97,0.00,,,0.00,meteohub,2015-05-29 15:22:00,
2015-05-29 08:27:00,52.2,51.3,30.04,NW,317,2.0,3.0,97,0.00,,,0.00,meteohub,2015-05-29 15:27:00,
2015-05-29 08:32:00,52.3,51.4,30.05,NW,317,0.0,3.0,97,0.00,,,0.00,meteohub,2015-05-29 15:32:00,
2015-05-29 08:37:00,52.2,51.3,30.05,WNW,284,2.0,4.0,97,0.00,,,0.00,meteohub,2015-05-29 15:37:00,
2015-05-29 08:42:00,52.2,51.3,30.05,West,267,0.0,4.0,97,0.00,,,0.00,meteohub,2015-05-29 15:42:00,
2015-05-29 08:47:00,52.3,51.4,30.05,West,267,3.0,5.0,97,0.00,,,0.00,meteohub,2015-05-29 15:47:00,
2015-05-29 08:52:00,52.3,51.4,30.05,WSW,240,3.0,5.0,97,0.00,,,0.00,meteohub,2015-05-29 15:52:00,
2015-05-29 08:57:00,52.3,51.4,30.05,West,263,3.0,5.0,97,0.00,,,0.00,meteohub,2015-05-29 15:57:00,
2015-05-29 09:02:00,52.3,51.4,30.05,WSW,257,1.0,5.0,97,0.00,,,0.00,meteohub,2015-05-29 16:02:00,
2015-05-29 09:07:00,52.5,51.6,30.05,West,271,0.0,6.0,97,0.00,,,0.00,meteohub,2015-05-29 16:07:00,
2015-05-29 09:12:00,52.5,51.4,30.05,WSW,258,6.0,6.0,96,0.00,,,0.00,meteohub,2015-05-29 16:12:00,
2015-05-29 09:17:00,52.3,51.3,30.05,WSW,250,2.0,8.0,96,0.00,,,0.00,meteohub,2015-05-29 16:17:00,
2015-05-29 09:22:00,52.3,51.4,30.05,WNW,290,2.0,8.0,97,0.00,,,0.00,meteohub,2015-05-29 16:22:00,
2015-05-29 09:27:00,52.5,51.6,30.05,West,264,1.0,8.0,97,0.00,,,0.00,meteohub,2015-05-29 16:27:00,
2015-05-29 09:32:00,52.7,51.6,30.05,WSW,256,4.0,8.0,96,0.00,,,0.00,meteohub,2015-05-29 16:32:00,
2015-05-29 09:37:00,52.5,51.1,30.05,WSW,257,8.0,8.0,95,0.00,,,0.00,meteohub,2015-05-29 16:37:00,
2015-05-29 09:42:00,52.3,50.9,30.05,WSW,250,3.0,9.0,95,0.00,,,0.00,meteohub,2015-05-29 16:42:00,
2015-05-29 09:47:00,52.9,51.8,30.05,West,279,1.0,9.0,96,0.00,,,0.00,meteohub,2015-05-29 16:47:00,
2015-05-29 09:52:00,53.2,51.8,30.05,WSW,246,7.0,9.0,95,0.00,,,0.00,meteohub,2015-05-29 16:52:00,
2015-05-29 09:57:00,53.6,52.2,30.05,WSW,248,4.0,7.0,95,0.00,,,0.00,meteohub,2015-05-29 16:57:00,
2015-05-29 10:02:00,53.8,52.2,30.05,SW,234,3.0,7.0,94,0.00,,,0.00,meteohub,2015-05-29 17:02:00,
2015-05-29 10:07:00,53.8,51.8,30.05,WSW,237,1.0,8.0,93,0.00,,,0.00,meteohub,2015-05-29 17:07:00,
2015-05-29 10:12:00,53.8,52.2,30.05,West,270,7.0,8.0,94,0.00,,,0.00,meteohub,2015-05-29 17:12:00,
2015-05-29 10:17:00,53.8,51.4,30.05,WSW,247,5.0,8.0,92,0.00,,,0.00,meteohub,2015-05-29 17:17:00,
2015-05-29 10:22:00,53.4,51.1,30.05,WSW,258,4.0,10.0,92,0.00,,,0.00,meteohub,2015-05-29 17:22:00,
2015-05-29 10:27:00,53.4,51.1,30.06,WSW,249,3.0,10.0,92,0.00,,,0.00,meteohub,2015-05-29 17:27:00,
2015-05-29 10:32:00,53.8,51.4,30.06,West,267,4.0,8.0,92,0.00,,,0.00,meteohub,2015-05-29 17:32:00,
2015-05-29 10:37:00,53.8,51.4,30.05,WSW,245,3.0,7.0,92,0.00,,,0.00,meteohub,2015-05-29 17:37:00,
2015-05-29 10:42:00,54.0,51.4,30.06,WSW,237,4.0,8.0,91,0.00,,,0.00,meteohub,2015-05-29 17:42:00,
2015-05-29 10:47:00,54.1,51.6,30.06,West,280,2.0,8.0,91,0.00,,,0.00,meteohub,2015-05-29 17:47:00,
2015-05-29 10:52:00,54.3,51.8,30.06,NW,311,2.0,7.0,91,0.00,,,0.00,meteohub,2015-05-29 17:52:00,
2015-05-29 10:57:00,54.1,51.6,30.06,WSW,238,2.0,6.0,91,0.00,,,0.00,meteohub,2015-05-29 17:57:00,
2015-05-29 11:02:00,54.3,51.8,30.06,West,275,3.0,9.0,91,0.00,,,0.00,meteohub,2015-05-29 18:02:00,
2015-05-29 11:07:00,54.3,51.8,30.06,SW,231,4.0,9.0,91,0.00,,,0.00,meteohub,2015-05-29 18:07:00,
2015-05-29 11:12:00,54.5,51.6,30.06,WSW,245,7.0,9.0,90,0.00,,,0.00,meteohub,2015-05-29 18:12:00,
2015-05-29 11:17:00,54.9,52.0,30.06,West,272,2.0,7.0,90,0.00,,,0.00,meteohub,2015-05-29 18:17:00,
2015-05-29 11:22:00,55.0,52.2,30.06,SW,236,4.0,7.0,90,0.00,,,0.00,meteohub,2015-05-29 18:22:00,
2015-05-29 11:27:00,54.9,52.0,30.06,West,259,1.0,9.0,90,0.00,,,0.00,meteohub,2015-05-29 18:27:00,
2015-05-29 11:32:00,54.9,52.0,30.06,NNE,19,0.0,9.0,90,0.00,,,0.00,meteohub,2015-05-29 18:32:00,
2015-05-29 11:37:00,55.0,52.2,30.06,West,269,6.0,9.0,90,0.00,,,0.00,meteohub,2015-05-29 18:37:00,
2015-05-29 11:42:00,55.2,52.3,30.06,WSW,242,4.0,8.0,90,0.00,,,0.00,meteohub,2015-05-29 18:42:00,
2015-05-29 11:47:00,55.6,52.2,30.05,SW,235,5.0,8.0,88,0.00,,,0.00,meteohub,2015-05-29 18:47:00,
2015-05-29 11:52:00,55.6,51.8,30.05,NNW,332,2.0,12.0,87,0.00,,,0.00,meteohub,2015-05-29 18:52:00,
2015-05-29 11:57:00,55.9,52.2,30.05,WSW,245,2.0,12.0,87,0.00,,,0.00,meteohub,2015-05-29 18:57:00,
2015-05-29 12:02:00,56.1,52.0,30.05,WSW,246,0.0,12.0,86,0.00,,,0.00,meteohub,2015-05-29 19:02:00,
2015-05-29 12:07:00,56.5,52.3,30.05,WSW,242,6.0,9.0,86,0.00,,,0.00,meteohub,2015-05-29 19:07:00,
2015-05-29 12:17:00,56.8,52.3,30.05,WSW,256,3.0,8.0,85,0.00,,,0.00,meteohub,2015-05-29 19:17:00,
2015-05-29 12:22:00,57.0,52.2,30.05,West,273,7.0,8.0,84,0.00,,,0.00,meteohub,2015-05-29 19:22:00,
2015-05-29 12:27:00,57.0,52.5,30.04,WSW,240,1.0,8.0,85,0.00,,,0.00,meteohub,2015-05-29 19:27:00,
2015-05-29 12:32:00,57.0,52.2,30.05,NE,49,0.0,10.0,84,0.00,,,0.00,meteohub,2015-05-29 19:32:00,
2015-05-29 12:37:00,57.2,52.7,30.05,WSW,245,8.0,10.0,85,0.00,,,0.00,meteohub,2015-05-29 19:37:00,
2015-05-29 12:42:00,57.2,52.2,30.05,WSW,238,1.0,10.0,83,0.00,,,0.00,meteohub,2015-05-29 19:42:00,
2015-05-29 12:47:00,57.2,52.2,30.05,West,263,9.0,10.0,83,0.00,,,0.00,meteohub,2015-05-29 19:47:00,
2015-05-29 12:52:00,57.4,52.5,30.05,West,259,2.0,10.0,84,0.00,,,0.00,meteohub,2015-05-29 19:52:00,
2015-05-29 12:57:00,57.6,52.7,30.05,WSW,252,7.0,10.0,84,0.00,,,0.00,meteohub,2015-05-29 19:57:00,
2015-05-29 13:02:00,57.7,52.3,30.04,WSW,238,2.0,10.0,82,0.00,,,0.00,meteohub,2015-05-29 20:02:00,
2015-05-29 13:07:00,57.7,52.3,30.04,North,351,2.0,9.0,82,0.00,,,0.00,meteohub,2015-05-29 20:07:00,
2015-05-29 13:12:00,57.7,52.3,30.04,NNW,336,1.0,9.0,82,0.00,,,0.00,meteohub,2015-05-29 20:12:00,
2015-05-29 13:17:00,57.6,52.2,30.04,West,271,1.0,10.0,82,0.00,,,0.00,meteohub,2015-05-29 20:17:00,
2015-05-29 13:22:00,57.7,52.3,30.04,WSW,238,3.0,10.0,82,0.00,,,0.00,meteohub,2015-05-29 20:22:00,
2015-05-29 13:27:00,57.9,52.7,30.04,WSW,256,5.0,10.0,83,0.00,,,0.00,meteohub,2015-05-29 20:27:00,
2015-05-29 13:32:00,57.9,51.8,30.04,SW,234,3.0,10.0,80,0.00,,,0.00,meteohub,2015-05-29 20:32:00,
2015-05-29 13:37:00,57.9,52.5,30.04,SW,217,4.0,9.0,82,0.00,,,0.00,meteohub,2015-05-29 20:37:00,
2015-05-29 13:42:00,58.1,52.7,30.04,NW,314,2.0,9.0,82,0.00,,,0.00,meteohub,2015-05-29 20:42:00,
2015-05-29 13:47:00,58.3,52.5,30.04,WSW,243,2.0,10.0,81,0.00,,,0.00,meteohub,2015-05-29 20:47:00,
2015-05-29 13:52:00,57.9,51.8,30.04,North,0,2.0,11.0,80,0.00,,,0.00,meteohub,2015-05-29 20:52:00,
2015-05-29 13:57:00,57.7,51.6,30.04,West,266,3.0,11.0,80,0.00,,,0.00,meteohub,2015-05-29 20:57:00,
2015-05-29 14:02:00,57.9,51.8,30.04,WSW,253,7.0,11.0,80,0.00,,,0.00,meteohub,2015-05-29 21:02:00,
2015-05-29 14:07:00,57.9,52.2,30.04,WSW,252,1.0,10.0,81,0.00,,,0.00,meteohub,2015-05-29 21:07:00,
2015-05-29 14:12:00,58.3,52.5,30.04,SW,229,6.0,10.0,81,0.00,,,0.00,meteohub,2015-05-29 21:12:00,
2015-05-29 14:17:00,58.3,51.4,30.04,SW,221,9.0,11.0,78,0.00,,,0.00,meteohub,2015-05-29 21:17:00,
2015-05-29 14:22:00,58.1,51.6,30.04,SW,236,3.0,13.0,79,0.00,,,0.00,meteohub,2015-05-29 21:22:00,
2015-05-29 14:27:00,58.5,52.0,30.03,West,273,1.0,13.0,79,0.00,,,0.00,meteohub,2015-05-29 21:27:00,
2015-05-29 14:32:00,58.6,51.8,30.03,SW,236,4.0,13.0,78,0.00,,,0.00,meteohub,2015-05-29 21:32:00,
2015-05-29 14:37:00,58.6,51.4,30.03,WSW,249,5.0,12.0,77,0.00,,,0.00,meteohub,2015-05-29 21:37:00,
2015-05-29 14:42:00,58.8,52.0,30.03,SW,229,7.0,11.0,78,0.00,,,0.00,meteohub,2015-05-29 21:42:00,
2015-05-29 14:47:00,58.6,52.2,30.04,SW,215,5.0,11.0,79,0.00,,,0.00,meteohub,2015-05-29 21:47:00,
2015-05-29 14:52:00,58.6,52.2,30.04,WNW,302,1.0,10.0,79,0.00,,,0.00,meteohub,2015-05-29 21:52:00,
2015-05-29 14:57:00,58.5,52.0,30.04,SW,236,4.0,10.0,79,0.00,,,0.00,meteohub,2015-05-29 21:57:00,
2015-05-29 15:02:00,58.5,52.0,30.04,SW,219,3.0,11.0,79,0.00,,,0.00,meteohub,2015-05-29 22:02:00,
2015-05-29 15:07:00,58.5,52.0,30.04,WNW,291,9.0,11.0,79,0.00,,,0.00,meteohub,2015-05-29 22:07:00,
2015-05-29 15:12:00,58.5,51.6,30.04,SW,231,4.0,14.0,78,0.00,,,0.00,meteohub,2015-05-29 22:12:00,
2015-05-29 15:17:00,58.5,52.0,30.03,WSW,254,3.0,14.0,79,0.00,,,0.00,meteohub,2015-05-29 22:17:00,
2015-05-29 15:22:00,58.5,52.0,30.03,WSW,242,9.0,14.0,79,0.00,,,0.00,meteohub,2015-05-29 22:22:00,
2015-05-29 15:27:00,58.5,51.6,30.03,SSW,193,6.0,14.0,78,0.00,,,0.00,meteohub,2015-05-29 22:27:00,
2015-05-29 15:32:00,58.6,52.2,30.03,West,276,4.0,14.0,79,0.00,,,0.00,meteohub,2015-05-29 22:32:00,
2015-05-29 15:37:00,58.5,52.0,30.03,WSW,256,7.0,14.0,79,0.00,,,0.00,meteohub,2015-05-29 22:37:00,
2015-05-29 15:42:00,58.5,52.3,30.03,West,271,2.0,14.0,80,0.00,,,0.00,meteohub,2015-05-29 22:42:00,
2015-05-29 15:47:00,58.5,52.0,30.03,WSW,238,4.0,14.0,79,0.00,,,0.00,meteohub,2015-05-29 22:47:00,
2015-05-29 15:52:00,58.5,52.0,30.03,West,275,4.0,14.0,79,0.00,,,0.00,meteohub,2015-05-29 22:52:00,
2015-05-29 15:57:00,58.5,52.3,30.03,NW,323,2.0,15.0,80,0.00,,,0.00,meteohub,2015-05-29 22:57:00,
2015-05-29 16:02:00,58.3,51.8,30.03,NW,316,1.0,15.0,79,0.00,,,0.00,meteohub,2015-05-29 23:02:00,
2015-05-29 16:07:00,58.5,51.6,30.03,WSW,248,4.0,15.0,78,0.00,,,0.00,meteohub,2015-05-29 23:07:00,
2015-05-29 16:12:00,58.5,51.6,30.02,SW,217,5.0,12.0,78,0.00,,,0.00,meteohub,2015-05-29 23:12:00,
2015-05-29 16:17:00,58.5,51.6,30.03,WSW,248,13.0,15.0,78,0.00,,,0.00,meteohub,2015-05-29 23:17:00,
2015-05-29 16:22:00,58.3,51.4,30.02,WSW,243,5.0,15.0,78,0.00,,,0.00,meteohub,2015-05-29 23:22:00,
2015-05-29 16:27:00,58.3,51.8,30.02,West,269,2.0,15.0,79,0.00,,,0.00,meteohub,2015-05-29 23:27:00,
2015-05-29 16:32:00,58.3,51.8,30.03,WSW,250,3.0,13.0,79,0.00,,,0.00,meteohub,2015-05-29 23:32:00,
2015-05-29 16:37:00,57.9,51.4,30.03,West,269,9.0,12.0,79,0.00,,,0.00,meteohub,2015-05-29 23:37:00,
2015-05-29 16:42:00,57.9,51.4,30.03,WSW,248,3.0,14.0,79,0.00,,,0.00,meteohub,2015-05-29 23:42:00,
2015-05-29 16:47:00,57.9,51.8,30.02,WSW,258,2.0,17.0,80,0.00,,,0.00,meteohub,2015-05-29 23:47:00,
2015-05-29 16:52:00,57.9,51.8,30.02,West,263,8.0,17.0,80,0.00,,,0.00,meteohub,2015-05-29 23:52:00,
2015-05-29 16:57:00,57.9,51.8,30.02,WSW,256,9.0,17.0,80,0.00,,,0.00,meteohub,2015-05-29 23:57:00,
2015-05-29 17:02:00,57.7,51.6,30.02,West,265,7.0,13.0,80,0.00,,,0.00,meteohub,2015-05-30 00:02:00,
2015-05-29 17:07:00,57.6,51.4,30.02,WSW,252,1.0,13.0,80,0.00,,,0.00,meteohub,2015-05-30 00:07:00,
2015-05-29 17:12:00,57.4,51.3,30.02,WNW,293,2.0,13.0,80,0.00,,,0.00,meteohub,2015-05-30 00:12:00,
2015-05-29 17:17:00,57.4,51.3,30.02,West,271,14.0,14.0,80,0.00,,,0.00,meteohub,2015-05-30 00:17:00,
2015-05-29 17:22:00,57.2,51.4,30.02,SW,234,4.0,14.0,81,0.00,,,0.00,meteohub,2015-05-30 00:22:00,
2015-05-29 17:27:00,57.0,51.3,30.02,SW,234,1.0,14.0,81,0.00,,,0.00,meteohub,2015-05-30 00:27:00,
2015-05-29 17:32:00,56.8,51.4,30.01,NNW,331,1.0,14.0,82,0.00,,,0.00,meteohub,2015-05-30 00:32:00,
2015-05-29 17:37:00,56.8,51.1,30.01,WNW,285,2.0,13.0,81,0.00,,,0.00,meteohub,2015-05-30 00:37:00,
2015-05-29 17:42:00,56.7,50.9,30.01,WNW,286,3.0,14.0,81,0.00,,,0.00,meteohub,2015-05-30 00:42:00,
2015-05-29 17:47:00,56.8,51.4,30.01,West,263,4.0,14.0,82,0.00,,,0.00,meteohub,2015-05-30 00:47:00,
2015-05-29 17:52:00,56.8,51.1,30.01,West,267,7.0,14.0,81,0.00,,,0.00,meteohub,2015-05-30 00:52:00,
2015-05-29 17:57:00,56.7,50.9,30.01,SW,219,1.0,14.0,81,0.00,,,0.00,meteohub,2015-05-30 00:57:00,
2015-05-29 18:02:00,56.5,51.1,30.01,West,265,6.0,14.0,82,0.00,,,0.00,meteohub,2015-05-30 01:02:00,
2015-05-29 18:07:00,56.7,51.3,30.00,NW,325,3.0,14.0,82,0.00,,,0.00,meteohub,2015-05-30 01:07:00,
2015-05-29 18:12:00,56.5,50.7,30.00,SW,221,8.0,12.0,81,0.00,,,0.00,meteohub,2015-05-30 01:12:00,
2015-05-29 18:17:00,56.7,51.3,30.00,WSW,244,3.0,11.0,82,0.00,,,0.00,meteohub,2015-05-30 01:17:00,
2015-05-29 18:22:00,56.7,50.9,30.00,West,267,2.0,11.0,81,0.00,,,0.00,meteohub,2015-05-30 01:22:00,
2015-05-29 18:27:00,56.5,50.7,30.00,SW,231,4.0,9.0,81,0.00,,,0.00,meteohub,2015-05-30 01:27:00,
2015-05-29 18:32:00,56.3,50.9,30.00,SW,224,6.0,13.0,82,0.00,,,0.00,meteohub,2015-05-30 01:32:00,
2015-05-29 18:37:00,56.3,50.9,30.00,WSW,239,4.0,13.0,82,0.00,,,0.00,meteohub,2015-05-30 01:37:00,
2015-05-29 18:42:00,56.3,50.9,30.00,WNW,299,2.0,11.0,82,0.00,,,0.00,meteohub,2015-05-30 01:42:00,
2015-05-29 18:47:00,56.1,50.7,30.00,SW,226,4.0,11.0,82,0.00,,,0.00,meteohub,2015-05-30 01:47:00,
2015-05-29 18:52:00,55.9,50.5,30.00,West,263,3.0,9.0,82,0.00,,,0.00,meteohub,2015-05-30 01:52:00,
2015-05-29 18:57:00,55.8,50.4,30.00,West,263,4.0,10.0,82,0.00,,,0.00,meteohub,2015-05-30 01:57:00,
2015-05-29 19:02:00,55.8,50.7,30.00,WNW,284,3.0,10.0,83,0.00,,,0.00,meteohub,2015-05-30 02:02:00,
2015-05-29 19:07:00,55.6,50.5,29.99,WSW,250,4.0,10.0,83,0.00,,,0.00,meteohub,2015-05-30 02:07:00,
2015-05-29 19:12:00,55.4,50.4,30.00,NNE,13,2.0,10.0,83,0.00,,,0.00,meteohub,2015-05-30 02:12:00,
2015-05-29 19:17:00,55.0,50.0,29.99,NW,304,2.0,8.0,83,0.00,,,0.00,meteohub,2015-05-30 02:17:00,
2015-05-29 19:22:00,55.0,50.0,29.99,West,275,2.0,8.0,83,0.00,,,0.00,meteohub,2015-05-30 02:22:00,
2015-05-29 19:27:00,55.0,50.4,29.99,WNW,288,2.0,12.0,84,0.00,,,0.00,meteohub,2015-05-30 02:27:00,
2015-05-29 19:32:00,55.0,50.4,30.00,SW,232,4.0,12.0,84,0.00,,,0.00,meteohub,2015-05-30 02:32:00,
2015-05-29 19:37:00,54.9,50.2,29.99,SSW,212,4.0,9.0,84,0.00,,,0.00,meteohub,2015-05-30 02:37:00,
2015-05-29 19:42:00,54.9,50.2,29.99,West,273,4.0,9.0,84,0.00,,,0.00,meteohub,2015-05-30 02:42:00,
2015-05-29 19:47:00,54.7,50.0,30.00,West,261,2.0,13.0,84,0.00,,,0.00,meteohub,2015-05-30 02:47:00,
2015-05-29 19:52:00,54.7,50.2,30.00,West,270,4.0,13.0,85,0.00,,,0.00,meteohub,2015-05-30 02:52:00,
2015-05-29 19:57:00,54.7,50.0,29.99,NNW,342,6.0,9.0,84,0.00,,,0.00,meteohub,2015-05-30 02:57:00,
2015-05-29 20:02:00,54.7,50.0,29.99,SSW,211,2.0,10.0,84,0.00,,,0.00,meteohub,2015-05-30 03:02:00,
2015-05-29 20:07:00,54.5,50.0,29.99,WSW,250,0.0,10.0,85,0.00,,,0.00,meteohub,2015-05-30 03:07:00,
2015-05-29 20:12:00,54.3,49.8,29.99,WSW,248,4.0,10.0,85,0.00,,,0.00,meteohub,2015-05-30 03:12:00,
2015-05-29 20:17:00,54.3,49.8,29.99,WNW,288,0.0,8.0,85,0.00,,,0.00,meteohub,2015-05-30 03:17:00,
2015-05-29 20:22:00,54.3,49.8,29.99,WSW,243,4.0,8.0,85,0.00,,,0.00,meteohub,2015-05-30 03:22:00,
2015-05-29 20:27:00,54.1,49.8,29.99,WSW,251,5.0,10.0,85,0.00,,,0.00,meteohub,2015-05-30 03:27:00,
2015-05-29 20:32:00,54.1,49.8,29.98,NW,325,2.0,10.0,85,0.00,,,0.00,meteohub,2015-05-30 03:32:00,
2015-05-29 20:37:00,54.0,49.6,29.98,SW,223,3.0,10.0,85,0.00,,,0.00,meteohub,2015-05-30 03:37:00,
2015-05-29 20:42:00,53.8,49.5,29.98,West,259,4.0,10.0,85,0.00,,,0.00,meteohub,2015-05-30 03:42:00,
2015-05-29 20:47:00,53.6,49.3,29.99,NW,319,3.0,10.0,85,0.00,,,0.00,meteohub,2015-05-30 03:47:00,
2015-05-29 20:52:00,53.4,49.3,29.98,WSW,244,2.0,10.0,86,0.00,,,0.00,meteohub,2015-05-30 03:52:00,
2015-05-29 20:57:00,53.4,49.3,29.99,West,265,2.0,10.0,86,0.00,,,0.00,meteohub,2015-05-30 03:57:00,
2015-05-29 21:02:00,53.4,49.3,29.99,SW,230,3.0,9.0,86,0.00,,,0.00,meteohub,2015-05-30 04:02:00,
2015-05-29 21:07:00,53.2,49.1,29.99,NW,318,2.0,9.0,86,0.00,,,0.00,meteohub,2015-05-30 04:07:00,
2015-05-29 21:12:00,53.2,49.1,29.99,WNW,300,5.0,8.0,86,0.00,,,0.00,meteohub,2015-05-30 04:12:00,
2015-05-29 21:17:00,53.1,48.9,29.99,East,96,2.0,10.0,86,0.00,,,0.00,meteohub,2015-05-30 04:17:00,
2015-05-29 21:22:00,53.1,49.3,29.99,NE,36,2.0,10.0,87,0.00,,,0.00,meteohub,2015-05-30 04:22:00,
2015-05-29 21:27:00,53.1,48.9,29.99,WSW,240,1.0,10.0,86,0.00,,,0.00,meteohub,2015-05-30 04:27:00,
2015-05-29 21:32:00,52.9,48.7,29.99,SW,228,3.0,10.0,86,0.00,,,0.00,meteohub,2015-05-30 04:32:00,
2015-05-29 21:37:00,52.9,49.1,29.99,WNW,293,2.0,10.0,87,0.00,,,0.00,meteohub,2015-05-30 04:37:00,
2015-05-29 21:42:00,52.9,49.1,29.99,West,260,4.0,11.0,87,0.00,,,0.00,meteohub,2015-05-30 04:42:00,